www.pogodaiklimat.ru
ПОГОДА в Олимпии
Время
и дата
12:29 05.02
12:35 05.02
12:49 05.02
12:54 05.02
13:20 05.02
13:54 05.02
13:56 05.02
14:54 05.02
15:07 05.02
15:25 05.02
15:54 05.02
16:54 05.02
17:54 05.02
18:54 05.02
19:54 05.02
20:54 05.02
21:54 05.02
22:54 05.02
23:54 05.02
00:54 06.02
01:54 06.02
02:54 06.02
03:29 06.02
03:38 06.02
03:54 06.02
04:23 06.02
04:36 06.02
04:54 06.02
05:54 06.02
06:54 06.02
07:54 06.02
08:54 06.02
09:54 06.02
10:54 06.02
11:54 06.02
12:49 06.02
12:54 06.02
13:03 06.02
13:10 06.02
13:40 06.02
13:54 06.02
14:21 06.02
14:54 06.02
15:54 06.02
16:54 06.02
17:54 06.02
18:18 06.02
18:54 06.02
Ветер
(напр.,м/с)
Видим. Явления Облачность Т
(С)
Тd
(С)
f
(%)
Тe
(С)
Тes
(С)
Комфортность P
(гПа)
Po
(гПа)
Тmin
(С)
Tmax
(С)
R
(мм)
R24
(мм)
S
(см)
штиль 0 4 км слабый дождь, дымка 10/10 300 m
[Ns]
+8.3 +7.8 97 +7 +7 1004.3
З 2 3 км слабый дождь, дымка 10/10 180 m
[Ns]
+7.8 +7.2 96 +6 +6 1004.3
штиль 0 3 км слабый дождь, дымка 10/10 270 m
[Ns]
+8.0 +7.0 93 +7 +7 1004.7
З 2 2 км слабый дождь, дымка 10/10 180 m
[Ns]
+7.8 +7.8 100 +6 +6 1012.3 1004.7 1.3
З 3 3 км слабый дождь, дымка 10/10 150 m
[Ns]
+8.3 +7.8 97 +5 +5 1005.3
ЮЗ 3 3 км дымка 10/10 240 м +8.3 +7.8 97 +5 +5 1012.9 1005.3
ЮЗ 3 3 км дымка 10/10 240 м +8.3 +7.8 97 +5 +5 1005.3
ЮЗ 3 5 км дымка 10/10 240 м +8.9 +8.3 96 +6 +6 1014.0 1006.3
ЮЗ 3 5 км дымка 10/8 240 m
[Ac]
+8.9 +7.8 93 +6 +6 1006.7
ЮЗ 3 6 км дымка 10/10 240 м +8.9 +7.8 93 +6 +6 1007.0
ЮЗ 4 16 км 10/8 750 m
[Ac]
+8.9 +7.2 89 +6 +6 1015.3 1007.7 +6.7 +9.4 1.8
ЮЗ 3 16 км 10/10 630 м +8.3 +6.7 90 +6 +6 1016.6 1009.0
ЮЗ 4 16 км 10/10 630 м +7.2 +5.6 90 +4 +4 1018.0 1010.4
З 5 16 км 8/8 690 м +7.2 +4.4 82 +3 +3 1019.7 1012.0
З 4 16 км 2/2 690 м +6.7 +3.9 82 +3 +3 1020.9 1013.1
ЮЗ 4 16 км 5/5 750 м +6.1 +3.3 82 +2 +2 1022.6 1014.7
Ю 3 16 км 2/2 720 м +6.1 +3.3 82 +3 +3 1023.9 1016.1 +5.6 +8.9
ЮЗ 3 16 км ясно +6.1 +2.8 79 +3 +3 1024.8 1017.1
ЮЗ 4
{9}
16 км 2/0 3600 m
[Ac]
+6.1 +3.3 82 +2 +2 1025.9 1018.1
ЮЗ 5
{9}
16 км 10/2 660 m
[Ac]
+6.1 +3.9 86 +2 +2 1026.7 1019.1
ЮЗ 5 16 км 10/10 1650 м +6.1 +3.9 86 +2 +2 1027.8 1020.1
Ю 5 13 км 10/8 690 m
[Ac]
+6.1 +3.9 86 +2 +2 1028.6 1020.8
Ю 3 5 км дымка 10/10 240 м +5.6 +5.0 96 +2 +2 1021.1
Ю 4 5 км дымка 10/10 240 м +5.0 +5.0 100 +1 +1 1021.1
Ю 4 8 км дымка 10/10 240 м +5.0 +5.0 100 +1 +1 1028.8 1021.1 +5.0 +6.7 6.1
Ю 6 5 км дымка 10/10 210 м +5.0 +5.0 100 0 0 1021.1
Ю 4 5 км слабый дождь, дымка 10/10 210 m
[Ns]
+5.0 +5.0 100 +1 +1 1021.1
Ю 5 5 км слабый дождь, дымка 10/10 210 m
[Ns]
+5.0 +5.0 100 0 0 1028.9 1021.1
Ю 4 11 км слабый дождь 10/10 180 m
[Ns]
+5.6 +5.0 96 +1 +1 1029.2 1021.5
ЮЗ 3 11 км слабый дождь 10/10 210 m
[Ns]
+5.6 +5.0 96 +2 +2 1029.8 1022.1 1.3
Ю 5 5 км дождь, дымка 10/10 210 m
[Ns]
+5.6 +5.0 96 +1 +1 1030.1 1022.5
Ю 2 6 км слабый дождь, дымка 10/10 210 m
[Ns]
+5.6 +5.0 96 +3 +3 1030.2 1022.5
Ю 5 11 км слабый дождь 10/10 240 m
[Ns]
+6.1 +5.6 97 +2 +2 1030.4 1022.8 +5.0 +6.1 4.8
ЮЗ 4 6 км слабый дождь, дымка 10/10 240 m
[Ns]
+6.7 +5.6 93 +3 +3 1030.8 1023.1
Ю 5
{9}
5 км слабый дождь, дымка 10/10 270 m
[Ns]
+7.2 +6.1 93 +3 +3 1030.5 1022.8
Ю 5 5 км дымка 10/10 360 м +8.0 +7.0 93 +4 +4 1022.1
Ю 4 5 км дымка 10/10 360 м +8.3 +7.2 93 +5 +5 1030.0 1022.1 1.8
Ю 5 5 км слабый дождь, дымка 10/10 300 m
[Ns]
+7.8 +7.2 96 +4 +4 1022.1
Ю 5 5 км дымка 10/10 360 м +8.3 +7.2 93 +5 +5 1022.1
Ю 6
{9}
5 км слабый дождь, дымка 10/10 390 m
[Ns]
+8.3 +7.2 93 +4 +4 1021.8
Ю 4 6 км дымка 10/10 360 м +8.3 +6.7 90 +5 +5 1029.6 1021.8
Ю 5 6 км слабый дождь, дымка 10/10 360 m
[Ns]
+8.3 +6.7 90 +5 +5 1021.8
Ю 5 6 км слабый дождь, дымка 10/10 510 m
[Ns]
+8.3 +7.2 93 +5 +5 1029.8 1022.1
Ю 4 10 км дымка 10/10 450 м +8.3 +7.2 93 +5 +5 1029.3 1021.5 +6.1 +8.3 2.5
Ю 5 16 км 10/10 360 м +7.8 +6.7 93 +4 +4 1029.0 1021.1
Ю 3 16 км 10/10 300 м +6.7 +6.1 96 +3 +3 1028.7 1020.8
Ю 3 16 км 10/10 330 м +7.2 +6.1 93 +4 +4 1020.8
Ю 5 16 км 10/10 330 м +7.2 +6.1 93 +3 +3 1028.0 1020.1 0.3
Местоположение метеостанции Olympia Airport: широта 46.9733 долгота -122.9033 высота над уровнем моря 62 м.
В архиве по умолчанию представлена погода в Олимпии за последние 1-2 суток. Обновление информации о фактической погоде в базе происходит ежечасно! Архивные данные за месяц целиком и за предыдущие месяцы Вы можете получить, выбрав интересующий диапазон дат из раскрывающегося списка и нажав кнопку "Ввод!".
Внимание! Архив погоды МЕТАР в базе сайта по станциям, не включенным в климатический монитор, хранится не более 60 дней. Нет смысла пытаться выбрать более раннюю дату.
*Определитесь, кто Вы:
Внимание! Время в таблицах - местное (без учета летнего времени). Для получения всемирного времени необходимо вычесть поправку, которая равна -8 ч.
Смотрите также архив погоды в соседних городах и на ближайших метеорологических станциях:
Партнеры нашего сайта:      
Пояснения к столбцам:
  • Ветер - указаны скорость ветра в м/с - средняя за 10 мин, порывы в срок и между сроками (в фигурных скобках) и направление, откуда дует ветер: С - северный,
  • СВ - северо-восточный, В - восточный, ЮВ - юго-восточный, Ю - южный, ЮЗ - юго-западный, З - западный, СЗ - северо-западный.
  • Видимость - горизонтальная дальность видимости в метрах или километрах. При видимости от 1 до 10 км при отсутствии осадков обычно наблюдается дымка, при ухудшении видимости до 1 км и менее - туман. В сухую погоду видимость может ухудшаться дымом, пылью или мглою.
  • Явления - указаны атмосферные явления, наблюдавшиеся в срок или в последний час перед сроком; фигурными скобками обозначены явления, наблюдавшиеся между сроками (за 1-3 часа до срока); квадратными скобками обозначены град или гололедные отложения с указанием их диаметра в мм.
  • Облачность - указаны через наклонную черту общая и нижняя облачность в баллах и высота нижней границы облаков в метрах; квадратными скобками обозначены формы облаков: Ci - перистые, Cs - перисто-слоистые, Cc - перисто-кучевые, Ac - высококучевые, As - высокослоистые, Sc - слоисто-кучевые, Ns - слоисто-дождевые, Cu - кучевые, Cb - кучево-дождевые. Подробнее классификацию облаков см. в Атласе облаков (PDF).
  • T - Температура воздуха - температура, измеренная на высоте 2 м над землей.
  • Td - Температура точки росы - температура, при понижении до которой содержащийся в воздухе водяной пар достигнет насыщения.
  • f - Относительная влажность воздуха - влажноcть воздуха, измеренная на высоте 2 м над землей.
  • Te - Эффективная температура - температура, которую ощущает одетый по сезону человек в тени. Характеристика душности погоды. При расчете учитывается влияние влажности воздуха и скорости ветра на теплоощущения человека.
  • Tes - Эффективная температура на солнце - температура, которую ощущает человек, с поправкой на солнечный нагрев. Характеристика знойности погоды. Зависит от высоты солнца над горизонтом, облачности и скорости ветра. Ночью, в пасмурную погоду, а также при ветре 12 м/с и более поправка равна нулю.
  • P - Атмосферное давление - приведенное к уровню моря атмосферное давление.
  • Po - Атмосферное давление - измеренное на уровне метеостанции атмосферное давление.
  • Tmin - Минимальная температура - минимум температуры воздуха на высоте 2 м над землей.
  • Tmax - Максимальная температура - максимум температуры воздуха на высоте 2 м над землей.
  • R - Количество осадков - Количество выпавших осадков за период времени, мм. При наведении курсора мыши на число - период времени, за который выпало указанное количество осадков.
  • R24 - Количество осадков - Количество выпавших осадков за 24 часа, мм.
  • S - Снежный покров - Высота снежного покрова, см. При наведении курсора мыши на число - состояние снежного покрова и степень покрытия местности в баллах.